Regional Weather Roundup
Issued by NWS

Home | Current Version | Previous Version | Graphics & Text | Print | Product List | Glossary On
Versions: 1 2 3 4 5 6 7 8 9 10 11 12 13 14 15 16 17 18 19 20 21 22 23 24 25 26 27 28 29 30 31 32 33 34 35 36 37 38 39 40 41 42 43 44 45 46 47 48 49 50
000
ASUS45 KCYS 231110
RWRWY

WYOMING REGIONAL WEATHER ROUNDUP
NATIONAL WEATHER SERVICE CHEYENNE WY
400 AM MST THU NOV 23 2017

NOTE:  "FAIR" INDICATES FEW OR NO CLOUDS BELOW 12,000 FEET
WITH NO SIGNIFICANT WEATHER AND/OR OBSTRUCTIONS TO VISIBILITY.

WYZ001-231200-
YELLOWSTONE NATIONAL PARK

CITY           SKY/WX    TMP DP  RH WIND       PRES   REMARKS
LK YELLOWSTONE   N/A     34  34 100 CALM      30.34F
W YELLOWSTONE  NOT AVBL

$$
WYZ002>013-054>058-071-098>099-231200-
NORTHERN WYOMING

CITY           SKY/WX    TMP DP  RH WIND       PRES   REMARKS
JACKSON        MOCLDY    31  30  96 N10       30.32F WCI  22
CODY           FAIR      54  35  48 VRB3      30.13
GREYBULL       FAIR      32  31  96 CALM      30.14F
WORLAND        FAIR      30  30 100 S3        30.13F
SHERIDAN       FAIR      57  37  47 W14       30.01F
BUFFALO        FAIR      50  29  44 W9        30.07F
GILLETTE       FAIR      50  36  58 SW17      30.03F
HULETT         FAIR      45  36  70 SW7       30.03F
NEWCASTLE      FAIR      34  32  93 CALM      30.10F

$$
WYZ014>020-022>026-101>103-231200-
CENTRAL WYOMING

CITY           SKY/WX    TMP DP  RH WIND       PRES   REMARKS
BIG PINEY      FAIR      22  21  96 E3        30.36F
PINEDALE       FAIR      27  27 100 W6        30.36F WCI  20
DUBOIS         FAIR      39  32  75 N17G23    30.24F WCI  30
LANDER         FAIR      42  33  70 SW7       30.18F
RIVERTON       FAIR      40  34  79 SW8       30.20S WCI  34
CASPER         FAIR      45  36  70 SW9       30.17F
DOUGLAS        FAIR      37  35  92 N6        30.14F WCI  32

$$
WYZ021-027>030-104>119-231200-
SOUTHERN WYOMING

CITY           SKY/WX    TMP DP  RH WIND       PRES   REMARKS
EVANSTON       FAIR      41  37  86 SW7       30.38F
KEMMERER       FAIR      34  32  93 N7        30.38F WCI  28
FORT BRIDGER   FAIR      42  35  74 W8        30.39F
ROCK SPRINGS   FAIR      43  35  73 SW14      30.35F
DIXON          FAIR      31  30  94 CALM      30.40F
RAWLINS        FAIR      42  36  79 W20       30.29F
SARATOGA       FAIR      34  34 100 SE9       30.35F WCI  26
LARAMIE        FAIR      38  34  85 W10       30.30F WCI  31
CHEYENNE       FAIR      48  36  63 W18G24    30.23F
TORRINGTON     FAIR      40  37  89 CALM      30.12F
PINE BLUFFS    FAIR      45  36  70 W8        30.21S

$$



USA.gov is the U.S. government's official web portal to all federal, state and local government web resources and services.